Total_Precipitation_Accumulation
0.02 0.02 0.03 0.03 0.04 0.04 0.03 0.03 0.04 0.04 0.04 0.04 0.04 0.04 0.04 0.04 0.04 0.01 0.00 0.00 0.00 0.00 0.00 0.00 0.00 0.00 0.02 0.05 0.13 0.51 0.21 0.11 0.11 0.29 0.20 0.38 0.64 0.23 0.07 0.31 0.30 0.31 0.25 0.08 0.04 0.03 0.10 0.18 0.19 0.12 0.10 0.08 0.02 0.01
0.02 0.02 0.03 0.03 0.03 0.03 0.03 0.03 0.04 0.03 0.03 0.03 0.03 0.03 0.04 0.04 0.04 0.01 0.00 0.00 0.00 0.00 0.00 0.00 0.00 0.00 0.00 0.00 0.01 0.04 0.10 0.16 0.06 0.34 0.32 0.26 0.32 0.40 0.08 0.07 0.17 0.13 0.23 0.32 0.15 0.08 0.07 0.06 0.27 0.42 0.21 0.12 0.10 0.04
0.03 0.02 0.02 0.02 0.02 0.02 0.02 0.02 0.03 0.03 0.03 0.02 0.02 0.03 0.04 0.04 0.04 0.02 0.00 0.00 0.00 0.00 0.00 0.00 0.00 0.00 0.00 0.00 0.00 0.01 0.03 0.10 0.06 0.05 0.05 0.10 0.28 0.49 0.27 0.04 0.41 0.34 0.10 0.10 0.16 0.09 0.11 0.02 0.00 0.00 0.00 0.00 0.00 0.00
0.02 0.02 0.02 0.01 0.01 0.02 0.02 0.02 0.02 0.02 0.02 0.01 0.01 0.02 0.04 0.04 0.03 0.02 0.00 0.00 0.00 0.00 0.00 0.00 0.00 0.00 0.00 0.00 0.00 0.00 0.01 0.02 0.01 0.01 0.00 0.00 0.02 0.06 0.05 0.21 0.43 0.24 0.15 0.03 0.05 0.06 0.15 0.05 0.01 0.01 0.01 0.00 0.00 0.00
0.02 0.01 0.01 0.01 0.01 0.01 0.01 0.01 0.02 0.02 0.01 0.00 0.00 0.01 0.02 0.02 0.02 0.00 0.00 0.00 0.00 0.00 0.00 0.00 0.00 0.00 0.00 0.00 0.00 0.00 0.00 0.00 0.00 0.00 0.00 0.01 0.00 0.01 0.01 0.07 0.18 0.08 0.05 0.06 0.13 0.06 0.11 0.08 0.03 0.02 0.01 0.00 0.01 0.01
0.01 0.01 0.01 0.00 0.00 0.00 0.01 0.01 0.01 0.01 0.00 0.00 0.00 0.00 0.00 0.00 0.01 0.00 0.00 0.00 0.00 0.00 0.00 0.00 0.00 0.00 0.00 0.00 0.00 0.00 0.00 0.00 0.00 0.00 0.00 0.01 0.00 0.02 0.01 0.10 0.17 0.10 0.06 0.08 0.10 0.10 0.08 0.07 0.02 0.00 0.01 0.00 0.00 0.00
0.01 0.01 0.00 0.00 0.01 0.01 0.01 0.01 0.01 0.01 0.00 0.00 0.00 0.00 0.00 0.00 0.00 0.00 0.00 0.00 0.00 0.00 0.00 0.00 0.00 0.00 0.00 0.00 0.00 0.00 0.00 0.00 0.00 0.00 0.00 0.00 0.00 0.00 0.00 0.06 0.06 0.04 0.04 0.05 0.03 0.03 0.03 0.04 0.01 0.00 0.00 0.00 0.00 0.00
0.01 0.01 0.00 0.00 0.00 0.01 0.01 0.01 0.01 0.00 0.00 0.00 0.00 0.00 0.00 0.00 0.00 0.00 0.00 0.00 0.00 0.00 0.00 0.00 0.00 0.00 0.00 0.00 0.00 0.00 0.00 0.00 0.00 0.00 0.00 0.00 0.00 0.00 0.04 0.03 0.02 0.02 0.01 0.00 0.00 0.00 0.00 0.00 0.00 0.00 0.00 0.00 0.00 0.01
0.00 0.00 0.00 0.00 0.01 0.01 0.01 0.01 0.00 0.00 0.00 0.00 0.00 0.00 0.00 0.00 0.00 0.00 0.00 0.00 0.00 0.00 0.00 0.00 0.00 0.00 0.00 0.00 0.00 0.00 0.00 0.00 0.00 0.00 0.00 0.00 0.00 0.05 0.06 0.04 0.03 0.01 0.01 0.02 0.02 0.02 0.01 0.01 0.01 0.02 0.01 0.01 0.01 0.03
0.00 0.00 0.00 0.00 0.01 0.01 0.01 0.01 0.00 0.00 0.00 0.00 0.00 0.00 0.00 0.00 0.00 0.00 0.00 0.00 0.00 0.00 0.00 0.00 0.00 0.00 0.00 0.00 0.00 0.00 0.00 0.00 0.00 0.00 0.00 0.00 0.03 0.02 0.05 0.07 0.05 0.01 0.01 0.01 0.02 0.02 0.02 0.02 0.02 0.02 0.02 0.02 0.02 0.02
0.00 0.00 0.00 0.01 0.01 0.01 0.01 0.00 0.00 0.00 0.00 0.00 0.00 0.00 0.00 0.00 0.00 0.00 0.00 0.01 0.01 0.01 0.00 0.00 0.00 0.00 0.00 0.00 0.00 0.00 0.00 0.00 0.00 0.00 0.00 0.00 0.03 0.02 0.03 0.05 0.12 0.09 0.06 0.08 0.07 0.06 0.05 0.05 0.05 0.05 0.07 0.08 0.08 0.07
0.00 0.00 0.01 0.01 0.01 0.01 0.00 0.00 0.00 0.00 0.00 0.00 0.01 0.00 0.00 0.00 0.01 0.02 0.02 0.02 0.01 0.02 0.00 0.00 0.00 0.00 0.00 0.00 0.00 0.00 0.00 0.00 0.00 0.00 0.00 0.06 0.06 0.14 0.34 0.45 0.51 0.56 0.60 0.53 0.38 0.27 0.19 0.16 0.17 0.16 0.21 0.24 0.16 0.12
0.00 0.01 0.01 0.01 0.01 0.00 0.00 0.00 0.01 0.01 0.01 0.00 0.01 0.00 0.01 0.01 0.02 0.01 0.02 0.03 0.01 0.00 0.00 0.00 0.00 0.00 0.00 0.00 0.00 0.00 0.00 0.00 0.00 0.01 0.01 0.09 0.04 0.06 0.22 0.46 0.52 0.55 0.63 0.65 0.64 0.46 0.39 0.46 0.37 0.30 0.33 0.27 0.24 0.25
0.00 0.00 0.00 0.00 0.00 0.00 0.00 0.01 0.01 0.01 0.00 0.00 0.00 0.01 0.01 0.01 0.02 0.01 0.01 0.00 0.00 0.00 0.00 0.00 0.00 0.00 0.00 0.01 0.00 0.01 0.01 0.00 0.01 0.02 0.19 0.25 0.16 0.07 0.05 0.06 0.16 0.43 0.38 0.35 0.47 0.51 0.42 0.53 0.64 0.51 0.43 0.47 0.39 0.24
0.00 0.00 0.00 0.00 0.00 0.00 0.00 0.00 0.00 0.00 0.00 0.00 0.00 0.00 0.00 0.00 0.00 0.01 0.01 0.03 0.03 0.03 0.02 0.02 0.01 0.00 0.00 0.01 0.01 0.03 0.02 0.03 0.13 0.27 0.29 0.35 0.27 0.28 0.22 0.11 0.03 0.10 0.22 0.12 0.11 0.15 0.24 0.32 0.31 0.43 0.36 0.41 0.56 0.55
0.00 0.00 0.00 0.00 0.00 0.00 0.00 0.00 0.00 0.00 0.00 0.00 0.00 0.00 0.00 0.01 0.02 0.04 0.04 0.10 0.11 0.10 0.11 0.07 0.03 0.01 0.03 0.05 0.08 0.11 0.13 0.24 0.31 0.18 0.31 0.36 0.26 0.22 0.25 0.29 0.23 0.22 0.25 0.29 0.26 0.16 0.07 0.10 0.12 0.17 0.22 0.22 0.25 0.37
0.00 0.00 0.00 0.00 0.00 0.00 0.00 0.00 0.00 0.00 0.00 0.00 0.01 0.02 0.03 0.06 0.12 0.13 0.26 0.38 0.49 0.42 0.47 0.39 0.10 0.02 0.03 0.07 0.14 0.17 0.29 0.21 0.08 0.01 0.10 0.17 0.17 0.14 0.09 0.13 0.19 0.27 0.13 0.20 0.23 0.20 0.23 0.13 0.07 0.10 0.10 0.10 0.08 0.14
0.00 0.00 0.00 0.00 0.01 0.00 0.00 0.00 0.00 0.02 0.01 0.00 0.06 0.08 0.05 0.09 0.14 0.16 0.21 0.38 0.32 0.57 0.69 0.56 0.28 0.05 0.03 0.08 0.26 0.19 0.11 0.09 0.10 0.14 0.14 0.20 0.17 0.14 0.08 0.07 0.03 0.04 0.04 0.05 0.07 0.14 0.19 0.20 0.18 0.17 0.20 0.15 0.10 0.18
0.00 0.00 0.00 0.00 0.01 0.01 0.00 0.01 0.03 0.05 0.01 0.06 0.21 0.26 0.28 0.20 0.09 0.44 0.36 0.26 0.30 0.24 0.41 0.49 0.38 0.18 0.28 0.23 0.26 0.18 0.29 0.32 0.41 0.26 0.18 0.18 0.12 0.12 0.07 0.02 0.00 0.01 0.01 0.01 0.01 0.08 0.13 0.15 0.13 0.09 0.09 0.13 0.19 0.21
0.00 0.00 0.00 0.00 0.00 0.00 0.01 0.01 0.05 0.20 0.16 0.10 0.04 0.09 0.36 0.33 0.19 0.19 0.38 0.22 0.31 0.40 0.32 0.17 0.44 0.33 0.27 0.10 0.08 0.09 0.14 0.14 0.10 0.22 0.31 0.23 0.11 0.10 0.05 0.01 0.01 0.01 0.00 0.00 0.02 0.02 0.18 0.18 0.12 0.13 0.05 0.00 0.02 0.02
0.01 0.00 0.00 0.00 0.01 0.01 0.01 0.01 0.05 0.14 0.04 0.02 0.01 0.05 0.10 0.23 0.13 0.18 0.16 0.19 0.46 0.47 0.33 0.26 0.31 0.29 0.15 0.15 0.21 0.09 0.15 0.10 0.14 0.17 0.16 0.09 0.02 0.00 0.00 0.00 0.00 0.00 0.00 0.07 0.23 0.23 0.18 0.21 0.08 0.07 0.01 0.00 0.00 0.00
0.01 0.00 0.00 0.01 0.04 0.06 0.04 0.01 0.01 0.01 0.00 0.03 0.01 0.04 0.13 0.15 0.12 0.22 0.10 0.26 0.35 0.25 0.28 0.30 0.25 0.22 0.19 0.16 0.10 0.03 0.04 0.01 0.01 0.01 0.00 0.00 0.01 0.02 0.02 0.03 0.03 0.04 0.11 0.26 0.36 0.28 0.27 0.09 0.04 0.02 0.01 0.00 0.00 0.00
0.01 0.01 0.02 0.04 0.03 0.01 0.00 0.01 0.05 0.06 0.10 0.14 0.08 0.11 0.16 0.18 0.13 0.10 0.32 0.33 0.35 0.14 0.17 0.24 0.15 0.08 0.06 0.09 0.02 0.00 0.00 0.00 0.02 0.04 0.02 0.04 0.08 0.06 0.03 0.10 0.08 0.32 0.35 0.42 0.51 0.27 0.11 0.02 0.01 0.01 0.01 0.01 0.01 0.00
0.01 0.02 0.03 0.02 0.01 0.00 0.05 0.11 0.15 0.17 0.17 0.17 0.19 0.37 0.17 0.05 0.08 0.09 0.33 0.38 0.21 0.23 0.32 0.17 0.12 0.04 0.02 0.03 0.05 0.03 0.02 0.02 0.15 0.17 0.06 0.08 0.10 0.12 0.02 0.06 0.10 0.16 0.28 0.50 0.34 0.06 0.04 0.03 0.01 0.01 0.00 0.00 0.00 0.00
0.01 0.00 0.00 0.01 0.00 0.03 0.09 0.06 0.05 0.06 0.11 0.02 0.03 0.20 0.08 0.01 0.07 0.09 0.32 0.41 0.35 0.54 0.36 0.29 0.11 0.04 0.10 0.15 0.15 0.18 0.21 0.26 0.26 0.17 0.04 0.01 0.06 0.08 0.02 0.00 0.00 0.01 0.05 0.13 0.24 0.21 0.07 0.07 0.03 0.01 0.01 0.00 0.00 0.00
0.00 0.00 0.00 0.01 0.03 0.08 0.07 0.05 0.03 0.01 0.00 0.00 0.01 0.01 0.01 0.01 0.07 0.34 0.51 0.48 0.41 0.33 0.43 0.19 0.03 0.24 0.28 0.22 0.19 0.27 0.34 0.18 0.05 0.03 0.01 0.00 0.01 0.02 0.01 0.00 0.00 0.00 0.00 0.00 0.02 0.04 0.03 0.04 0.03 0.01 0.00 0.01 0.01 0.01
0.01 0.02 0.02 0.00 0.01 0.01 0.02 0.02 0.01 0.00 0.01 0.00 0.00 0.01 0.02 0.21 0.39 0.49 0.43 0.30 0.26 0.17 0.17 0.07 0.06 0.23 0.18 0.13 0.06 0.03 0.03 0.01 0.00 0.00 0.00 0.00 0.00 0.00 0.00 0.00 0.00 0.00 0.00 0.00 0.00 0.00 0.00 0.00 0.00 0.00 0.00 0.00 0.01 0.00
0.02 0.01 0.03 0.03 0.01 0.00 0.04 0.10 0.07 0.01 0.00 0.00 0.03 0.06 0.07 0.12 0.28 0.26 0.12 0.05 0.02 0.00 0.01 0.01 0.01 0.03 0.12 0.09 0.03 0.02 0.01 0.00 0.00 0.00 0.00 0.00 0.00 0.00 0.00 0.00 0.00 0.00 0.00 0.00 0.00 0.00 0.00 0.00 0.00 0.00 0.00 0.00 0.00 0.00
0.00 0.00 0.00 0.01 0.01 0.02 0.02 0.06 0.05 0.01 0.01 0.01 0.06 0.11 0.07 0.01 0.02 0.02 0.02 0.04 0.01 0.00 0.07 0.18 0.15 0.08 0.19 0.08 0.04 0.07 0.01 0.00 0.00 0.00 0.00 0.00 0.00 0.00 0.00 0.00 0.00 0.00 0.00 0.00 0.00 0.00 0.00 0.00 0.00 0.00 0.00 0.00 0.00 0.00
0.00 0.00 0.00 0.00 0.03 0.05 0.01 0.00 0.00 0.01 0.02 0.03 0.02 0.02 0.04 0.07 0.08 0.03 0.03 0.07 0.07 0.06 0.12 0.16 0.11 0.10 0.13 0.05 0.04 0.04 0.03 0.01 0.00 0.00 0.00 0.01 0.00 0.00 0.00 0.00 0.00 0.00 0.00 0.00 0.00 0.00 0.00 0.00 0.00 0.00 0.00 0.00 0.00 0.00
0.00 0.00 0.00 0.00 0.01 0.01 0.01 0.01 0.04 0.11 0.26 0.11 0.04 0.09 0.16 0.31 0.29 0.09 0.04 0.03 0.03 0.03 0.01 0.02 0.02 0.02 0.03 0.04 0.04 0.02 0.05 0.03 0.01 0.00 0.01 0.01 0.00 0.00 0.00 0.00 0.00 0.00 0.00 0.00 0.00 0.00 0.00 0.00 0.00 0.00 0.00 0.00 0.00 0.00
0.00 0.00 0.00 0.01 0.01 0.02 0.01 0.03 0.17 0.22 0.17 0.24 0.22 0.30 0.41 0.46 0.47 0.26 0.08 0.06 0.02 0.00 0.01 0.03 0.03 0.01 0.00 0.00 0.00 0.00 0.01 0.01 0.00 0.00 0.00 0.00 0.00 0.00 0.00 0.00 0.00 0.00 0.00 0.00 0.00 0.00 0.00 0.00 0.00 0.00 0.00 0.00 0.00 0.00
0.02 0.02 0.00 0.00 0.01 0.02 0.04 0.18 0.43 0.43 0.57 0.44 0.43 0.30 0.32 0.31 0.34 0.16 0.02 0.03 0.02 0.03 0.03 0.03 0.03 0.01 0.00 0.00 0.00 0.00 0.00 0.00 0.00 0.00 0.00 0.00 0.00 0.00 0.00 0.00 0.00 0.00 0.00 0.00 0.00 0.00 0.00 0.00 0.00 0.00 0.00 0.00 0.00 0.00